Regional Weather Roundup
Issued by NWS

Home | Current Version | Previous Version | Text Only | Print | Product List | Glossary On
Versions: 1 2 3 4 5 6 7 8 9 10 11 12 13 14 15 16 17 18 19 20 21 22 23 24 25 26 27
000
ASPQ40 PGUM 180412
RWRPQ
WEATHER ROUNDUP FOR THE MARIANAS AND MICRONESIA
NATIONAL WEATHER SERVICE TIYAN GU
200 PM GSST FRI APR 18 2014

GUZ001>004-180500-
MARIANA ISLANDS-

CITY           SKY/WX    TMP DP  RH WIND       PRES   REMARKS
GUAM AIRPORT   MOSUNNY   90  75  62 E12G21    29.77F HX 100
ANDERSEN AFB   PTSUNNY   84  77  79 NE16      29.78F HX  94
ROTA AIRPORT   PTSUNNY   82  77  83 E17       29.79F HX  91
TINIAN AP      PTSUNNY   84  75  74 E12       29.77F HX  92
SAIPAN AP      MOSUNNY   88  77  70 E13       29.78F HX 100

$$

PMZ161-180500-
REPUBLIC OF PALAU-

CITY           SKY/WX    TMP DP  RH WIND       PRES   REMARKS
KOROR AP       PTSUNNY   88  77  70 W12       29.78F HX 100
KOROR WSO      PTSUNNY   88  79  74 N7        29.78F HX 102

$$

PMZ171>174-180500-
FEDERATED STATES OF MICRONESIA-

CITY           SKY/WX    TMP DP  RH WIND       PRES   REMARKS
YAP AIRPORT    MOSUNNY   93  75  55 VRB3      29.78F HX 104
CHUUK AP       PTSUNNY   88  77  70 SW8       29.76F HX 100
POHNPEI AP     NOT AVBL
POHNPEI WSO    CLOUDY    84  75  74 NE9       29.80F HX  92
KOSRAE AP      CLOUDY    86  77  74 NE12      29.75S HX  97

$$

PMZ181-180500-
REPUBLIC OF THE MARSHALL ISLANDS-

CITY           SKY/WX    TMP DP  RH WIND       PRES   REMARKS
KWAJALEIN AP   MOSUNNY   86  75  70 NE18      29.79S HX  95
MAJURO AP      PTSUNNY   84  75  74 NE17      29.76S HX  92
MAJURO WSO     PTSUNNY   84  77  79 NE13      29.75F HX  94

$$




USA.gov is the U.S. government's official web portal to all federal, state and local government web resources and services.